Elko, NV

8:47 PM PST on February 23, 2017 (GMT -0800)
Elko Regional

Weather History for KEKO - May, 2013

Change the Weather History Date:

Monday, May 13, 2013

  Actual Average Record
Temperature  
Mean Temperature 68 °F 53 °F  
Max Temperature 88 °F 68 °F 92 °F (1936)
Min Temperature 47 °F 37 °F 19 °F (1916)
Degree Days  
Heating Degree Days 0 12  
Month to date heating degree days 133 184  
Since 1 July heating degree days 6533 6755  
Cooling Degree Days 3 0  
Month to date cooling degree days 3 0  
Year to date cooling degree days 3 0  
Growing Degree Days 18 (Base 50)    
Moisture  
Dew Point 30 °F    
Average Humidity 30    
Maximum Humidity 48    
Minimum Humidity 12    
Precipitation  
Precipitation 0.00 in 0.03 in 0.43 in (1968)
Month to date precipitation T 0.41  
Year to date precipitation 2.20 4.34  
Snow  
Snow 0.00 in 0.00 in 0.20 in (1968)
Month to date snowfall 0.0 0.3  
Since 1 July snowfall 42.2 41.1  
Snow Depth 0.00 in    
Sea Level Pressure  
Sea Level Pressure 29.99 in    
Wind  
Wind Speed 7 mph (West)    
Max Wind Speed 25 mph    
Max Gust Speed 30 mph    
Visibility 10 miles    
Events      
T = Trace of Precipitation, MM = Missing Value Source: NWS Daily Summary

Daily Weather History Graph

Daily Weather History Graph

Search for Another Location

Airport or City:

Trip Planner

Search our weather history database for the weather conditions in past years. The results will help you decide how hot, cold, wet, or windy it might be!

Date:

Astronomy

May. 13, 2013 Rise Set
Actual Time 5:27 AM PDT 7:52 PM PDT
Civil Twilight 4:56 AM PDT 8:23 PM PDT
Nautical Twilight 4:18 AM PDT 9:01 PM PDT
Astronomical Twilight 3:35 AM PDT 9:44 PM PDT
Moon 8:17 AM PDT (5/13) 11:04 PM PDT (5/13)
Length of Visible Light 15h 26m
Length of Day
14h 24m
Waxing Crescent, 13% of the Moon is Illuminated
May 13
Waxing Crescent
May 17
First Quarter
May 24
Full
May 31
Last Quarter
Jun 8
New

Hourly Weather History & Observations

Time (PDT) Temp. Dew Point Humidity Pressure Visibility Wind Dir Wind Speed Gust Speed Precip Events Conditions
12:56 AM 55.0 °F 28.9 °F 37% 30.04 in 10.0 mi ENE 3.5 mph - N/A   Clear
1:56 AM 50.0 °F 28.9 °F 44% 30.05 in 10.0 mi NNW 3.5 mph - N/A   Clear
2:56 AM 53.1 °F 28.9 °F 40% 30.04 in 10.0 mi East 6.9 mph - N/A   Clear
3:56 AM 50.0 °F 28.9 °F 44% 30.04 in 10.0 mi ENE 4.6 mph - N/A   Clear
4:56 AM 48.0 °F 28.0 °F 46% 30.05 in 10.0 mi East 5.8 mph - N/A   Clear
5:56 AM 48.0 °F 28.9 °F 48% 30.07 in 10.0 mi NNE 4.6 mph - N/A   Clear
6:56 AM 52.0 °F 32.0 °F 47% 30.09 in 10.0 mi ESE 3.5 mph - N/A   Clear
7:56 AM 59.0 °F 32.0 °F 36% 30.09 in 10.0 mi Calm Calm - N/A   Clear
8:56 AM 64.9 °F 34.0 °F 32% 30.08 in 10.0 mi Variable 3.5 mph - N/A   Clear
9:56 AM 73.0 °F 34.0 °F 24% 30.06 in 10.0 mi WSW 6.9 mph - N/A   Clear
10:56 AM 80.1 °F 30.9 °F 17% 30.03 in 10.0 mi SW 9.2 mph - N/A   Clear
11:56 AM 81.0 °F 30.9 °F 16% 30.02 in 10.0 mi SW 12.7 mph 17.3 mph N/A   Clear
1:56 PM 84.9 °F 32.0 °F 15% 29.99 in 10.0 mi SW 15.0 mph 20.7 mph N/A   Clear
2:56 PM 87.1 °F 32.0 °F 14% 29.96 in 10.0 mi West 12.7 mph 24.2 mph N/A   Clear
3:56 PM 86.0 °F 30.0 °F 13% 29.94 in 10.0 mi West 12.7 mph 21.9 mph N/A   Clear
4:56 PM 86.0 °F 28.9 °F 13% 29.93 in 10.0 mi West 17.3 mph 25.3 mph N/A   Clear
5:56 PM 84.9 °F 30.0 °F 14% 29.91 in 10.0 mi West 19.6 mph 28.8 mph N/A   Clear
6:56 PM 82.0 °F 28.9 °F 14% 29.90 in 10.0 mi West 16.1 mph - N/A   Clear
7:56 PM 75.0 °F 27.0 °F 17% 29.90 in 10.0 mi West 5.8 mph - N/A   Clear
8:56 PM 71.1 °F 28.0 °F 20% 29.91 in 10.0 mi Calm Calm - N/A   Clear
9:56 PM 66.0 °F 28.0 °F 24% 29.92 in 10.0 mi Variable 3.5 mph - N/A   Clear
10:56 PM 62.1 °F 28.0 °F 28% 29.92 in 10.0 mi Calm Calm - N/A   Clear
11:56 PM 55.0 °F 28.9 °F 37% 29.94 in 10.0 mi Calm Calm - N/A   Clear